User: anonymous   Login
Location: Unspecified
(0.0000°N, 0.0000°E)
Time: 09:23:43
(UTC+00:00)
Language:

Transit VBN-1 - Orbit

View from above orbital plane
View from above orbital plane
View from above satellite
View from above satellite

Ground track
Ground track

The orbit data is extracted from the following two-line orbital elements,

1   670U 63038B   17086.71419668 +.00000056 +00000-0 +81974-4 0  9991
2   670 090.0785 324.6111 0040291 315.8241 105.7764 13.44266878621730
Epoch (UTC): 27 March 2017 17:08:26
Eccentricity: 0.0040291
inclination: 90.0785°
perigee height: 1063 km
apogee height: 1123 km
right ascension of ascending node: 324.6111°
argument of perigee: 315.8241°
revolutions per day: 13.44266878
mean anomaly at epoch: 105.7764°
orbit number at epoch: 62173

The dashed part of the orbit path shows where the satellite is in the earth's shadow,  

DLR